Date String (YYYY-MM-DD hh:mm:ss) UTC,Instrument flags,absolute air pressure of the measurement (hPa),sample flow rate (lpm),inlet stack bypass flow (lpm),air temperature of the measurement (°C),ambient temperature measured by the external sensor (°C),aerosol sample conditioner tube jacket temperature (°C),OPC LED temperature (°C),internal box temperature (°C),relative humidity of the measurement (%),span deviation,mass concentration of particles derived from Lorenz-Mie calculation of OPC scattering (μg/m³),mass concentration of particles derived from Lorenz-Mie calculation of OPC scattering (μg/m³),mass concentration of particles derived from Lorenz-Mie calculation of OPC scattering (μg/m³)
DateTimeUTC,F1_M11,P_M11,Q1_M11,Q2_M11,T1_M11,T2_M11,T3_M11,T4_M11,T5_M11,U1_M11,ZSPAN_M11,X0_M11,X2_M11,X1_M11
2024-02-02 17:00:00,SystemResetWarning,0817.4,5.01,000.00,022.0,021.4,000.0,030.3,023.7,14.5,0000.0,0013.70,0004.51,0003.93
2024-02-02 17:01:00,SystemResetWarning,0817.3,4.98,000.00,022.0,021.4,000.0,030.3,023.7,14.2,0000.0,0014.02,0004.50,0003.92
2024-02-02 17:02:00,SystemResetWarning,0817.3,5.00,000.00,022.0,021.4,000.0,030.3,023.7,14.2,0000.0,0014.68,0004.48,0003.91
2024-02-02 17:03:00,SystemResetWarning,0817.3,5.02,000.00,022.0,021.4,000.0,030.3,023.8,14.3,0000.0,0013.35,0004.50,0003.91
2024-02-02 17:04:00,SystemResetWarning,0817.4,5.00,000.00,022.0,021.5,000.0,030.3,023.8,14.5,0000.0,0013.48,0004.53,0003.90
2024-02-02 17:05:00,SystemResetWarning,0817.3,5.00,000.00,022.0,021.5,000.0,030.3,023.8,14.5,0000.0,0013.48,0004.54,0003.90
2024-02-02 17:06:00,SystemResetWarning,0817.3,4.99,000.00,022.0,021.5,000.0,030.3,023.8,14.4,0000.0,0013.54,0004.55,0003.91
2024-02-02 17:07:00,SystemResetWarning,0817.3,5.00,000.00,022.0,021.5,000.0,030.3,023.8,14.5,0000.0,0012.92,0004.56,0003.92
2024-02-02 17:08:00,SystemResetWarning,0817.4,5.01,000.00,022.0,021.5,000.0,030.3,023.8,14.6,0000.0,0012.53,0004.57,0003.93
2024-02-02 17:09:00,SystemResetWarning,0817.3,5.01,000.00,022.0,021.4,000.0,030.3,023.8,14.6,0000.0,0012.55,0004.54,0003.93
2024-02-02 17:10:00,SystemResetWarning,0817.4,5.00,000.00,022.0,021.4,000.0,030.3,023.8,14.8,0000.0,0012.90,0004.54,0003.95
2024-02-02 17:11:00,SystemResetWarning,0817.3,5.00,000.00,022.0,021.4,000.0,030.3,023.8,14.7,0000.0,0013.23,0004.57,0003.97
2024-02-02 17:12:00,SystemResetWarning,0817.3,4.99,000.00,022.0,021.4,000.0,030.3,023.8,14.6,0000.0,0012.71,0004.54,0003.99
2024-02-02 17:13:00,SystemResetWarning,0817.3,5.00,000.00,022.0,021.4,000.0,030.4,023.8,14.7,0000.0,0011.77,0004.57,0004.02
2024-02-02 17:14:00,SystemResetWarning,0817.2,5.00,000.00,022.0,021.4,000.0,030.4,023.8,14.7,0000.0,0011.90,0004.60,0004.03
2024-02-02 17:15:00,SystemResetWarning,0817.2,5.00,000.00,022.0,021.4,000.0,030.4,023.8,14.7,0000.0,0012.90,0004.61,0004.04
2024-02-02 17:16:00,SystemResetWarning,0817.2,5.00,000.00,022.0,021.4,000.0,030.4,023.8,14.7,0000.0,0013.34,0004.63,0004.05
2024-02-02 17:17:00,SystemResetWarning,0817.2,5.00,000.00,022.0,021.5,000.0,030.4,023.8,14.5,0000.0,0013.55,0004.69,0004.07
2024-02-02 17:18:00,SystemResetWarning,0817.2,5.00,000.00,022.1,021.5,000.0,030.4,023.8,14.8,0000.0,0014.07,0004.74,0004.07
2024-02-02 17:19:00,SystemResetWarning,0817.3,5.00,000.00,022.1,021.5,000.0,030.4,023.8,14.8,0000.0,0013.97,0004.73,0004.07
2024-02-02 17:20:00,SystemResetWarning,0817.3,5.00,000.00,022.1,021.5,000.0,030.4,023.8,14.7,0000.0,0013.97,0004.74,0004.09
2024-02-02 17:21:00,SystemResetWarning,0817.3,4.99,000.00,022.1,021.5,000.0,030.4,023.9,14.8,0000.0,0013.54,0004.75,0004.10
2024-02-02 17:22:00,SystemResetWarning,0817.3,4.99,000.00,022.1,021.5,000.0,030.4,023.9,14.8,0000.0,0013.01,0004.76,0004.10
2024-02-02 17:23:00,SystemResetWarning,0817.2,4.99,000.00,022.1,021.5,000.0,030.4,023.8,14.7,0000.0,0013.34,0004.79,0004.11
2024-02-02 17:24:00,SystemResetWarning,0817.2,5.01,000.00,022.1,021.5,000.0,030.4,023.8,14.8,0000.0,0013.66,0004.80,0004.11
2024-02-02 17:25:00,SystemResetWarning,0817.3,5.01,000.00,022.1,021.5,000.0,030.4,023.8,14.6,0000.0,0013.90,0004.80,0004.13
2024-02-02 17:26:00,SystemResetWarning,0817.3,5.00,000.00,022.1,021.5,000.0,030.4,023.8,14.6,0000.0,0013.12,0004.80,0004.14
2024-02-02 17:27:00,SystemResetWarning,0817.3,5.00,000.00,022.1,021.5,000.0,030.4,023.8,14.6,0000.0,0012.68,0004.79,0004.15
2024-02-02 17:28:00,SystemResetWarning,0817.3,5.00,000.00,022.1,021.5,000.0,030.4,023.8,14.6,0000.0,0013.20,0004.74,0004.14
2024-02-02 17:29:00,SystemResetWarning,0817.4,4.99,000.00,022.1,021.5,000.0,030.4,023.9,14.6,0000.0,0013.97,0004.72,0004.15
2024-02-02 17:30:00,SystemResetWarning,0817.4,4.99,000.00,022.1,021.5,000.0,030.4,023.8,14.6,0000.0,0015.35,0004.74,0004.17
2024-02-02 17:31:00,SystemResetWarning,0817.4,5.01,000.00,022.1,021.5,000.0,030.4,023.8,14.6,0001.7,0015.53,0004.75,0004.16
2024-02-02 17:32:00,SystemResetWarning,0817.4,5.01,000.00,022.1,021.5,000.0,030.4,023.8,14.5,0003.4,0014.84,0004.73,0004.16
2024-02-02 17:33:00,SystemResetWarning,0817.4,5.00,000.00,022.1,021.5,000.0,030.4,023.8,14.6,0005.3,0015.18,0004.77,0004.16
2024-02-02 17:34:00,SystemResetWarning,0817.4,4.99,000.00,022.1,021.4,000.0,030.4,023.8,14.4,0002.0,0015.97,0004.76,0004.16
2024-02-02 17:35:00,SystemResetWarning,0817.4,4.99,000.00,022.1,021.4,000.0,030.4,023.9,14.4,0000.9,0014.99,0004.77,0004.17
2024-02-02 17:36:00,SystemResetWarning,0817.3,5.00,000.00,022.1,021.4,000.0,030.4,023.9,14.3,0000.0,0014.58,0004.79,0004.17
2024-02-02 17:37:00,SystemResetWarning,0817.4,5.01,000.00,022.1,021.4,000.0,030.4,023.8,14.2,0000.0,0014.75,0004.80,0004.17
2024-02-02 17:38:00,SystemResetWarning,0817.3,5.00,000.00,022.1,021.4,000.0,030.4,023.8,14.3,0000.0,0014.64,0004.82,0004.18
2024-02-02 17:39:00,SystemResetWarning,0817.3,5.00,000.00,022.1,021.4,000.0,030.4,023.8,14.5,0000.0,0014.77,0004.88,0004.18
2024-02-02 17:40:00,SystemResetWarning,0817.3,4.99,000.00,022.1,021.4,000.0,030.4,023.8,14.8,0000.0,0013.90,0004.90,0004.18
2024-02-02 17:41:00,SystemResetWarning,0817.3,5.00,000.00,022.1,021.4,000.0,030.4,023.8,14.5,0000.0,0012.82,0004.89,0004.20
2024-02-02 17:42:00,SystemResetWarning,0817.2,4.99,000.00,022.1,021.4,000.0,030.4,023.8,14.4,0000.0,0012.37,0004.93,0004.21
2024-02-02 17:43:00,SystemResetWarning,0817.2,4.99,000.00,022.1,021.4,000.0,030.4,023.8,14.8,0000.0,0012.62,0004.93,0004.22
2024-02-02 17:44:00,SystemResetWarning,0817.2,5.00,000.00,022.1,021.4,000.0,030.4,023.8,14.8,0000.0,0013.34,0004.95,0004.23
2024-02-02 17:45:00,SystemResetWarning,0817.2,5.00,000.00,022.1,021.4,000.0,030.4,023.8,14.8,0000.0,0012.26,0004.97,0004.23
2024-02-02 17:46:00,SystemResetWarning,0817.1,5.02,000.00,022.1,021.4,000.0,030.4,023.8,14.8,0000.0,0012.01,0004.98,0004.23
2024-02-02 17:47:00,SystemResetWarning,0817.1,5.00,000.00,022.1,021.4,000.0,030.4,023.8,14.6,0000.0,0012.21,0004.98,0004.24
2024-02-02 17:48:00,SystemResetWarning,0817.1,4.99,000.00,022.1,021.4,000.0,030.4,023.8,14.5,0000.0,0012.04,0004.96,0004.24
2024-02-02 17:49:00,SystemResetWarning,0817.1,5.00,000.00,022.1,021.4,000.0,030.4,023.9,14.2,0000.0,0012.33,0004.91,0004.23
2024-02-02 17:50:00,SystemResetWarning,0817.1,5.02,000.00,022.1,021.5,000.0,030.5,023.9,14.2,0000.0,0012.05,0004.90,0004.22
2024-02-02 17:51:00,SystemResetWarning,0817.1,5.00,000.00,022.1,021.5,000.0,030.5,023.9,14.3,0000.0,0011.95,0004.88,0004.22
2024-02-02 17:52:00,SystemResetWarning,0817.0,4.99,000.00,022.1,021.5,000.0,030.4,023.9,14.2,0000.0,0012.43,0004.91,0004.21
2024-02-02 17:53:00,SystemResetWarning,0817.1,5.00,000.00,022.1,021.5,000.0,030.4,023.9,14.3,0000.0,0012.93,0004.92,0004.21
2024-02-02 17:54:00,SystemResetWarning,0817.1,4.99,000.00,022.1,021.5,000.0,030.4,023.9,14.2,0000.0,0012.44,0004.93,0004.20
2024-02-02 17:55:00,SystemResetWarning,0817.0,5.00,000.00,022.1,021.5,000.0,030.4,023.9,14.1,0000.0,0011.63,0004.90,0004.21
2024-02-02 17:56:00,SystemResetWarning,0816.9,4.99,000.00,022.1,021.5,000.0,030.4,023.9,14.1,0000.0,0011.27,0004.85,0004.21
2024-02-02 17:57:00,SystemResetWarning,0816.9,5.00,000.00,022.1,021.5,000.0,030.5,023.9,14.1,0000.0,0010.90,0004.81,0004.21
2024-02-02 17:58:00,SystemResetWarning,0816.9,5.01,000.00,022.1,021.5,000.0,030.5,023.9,14.4,0000.0,0010.75,0004.80,0004.20
2024-02-02 17:59:00,SystemResetWarning,0816.9,5.01,000.00,022.1,021.5,000.0,030.5,023.9,14.2,0000.0,0011.09,0004.79,0004.19
